This is the latest recevied weather packets stored in our database for station/object DL4SAV. If no packets are shown the sender has not sent any weather packets the latest 10 day(s).
| Time | Temp. | Humidity | Pressure | Rain* | Wind** | Luminosity | Snow |
|---|---|---|---|---|---|---|---|
| 1788012872 | 25° C | 47% | 1016.1 hPa | 0 mm | - | - | - |
| 1788012572 | 25° C | 48% | 1015.9 hPa | 0 mm | - | - | - |
| 1788012272 | 25° C | 49% | 1015.9 hPa | 0 mm | - | - | - |
| 1788011971 | 25° C | 50% | 1016 hPa | 0 mm | - | - | - |
| 1788011671 | 25° C | 49% | 1016.2 hPa | 0 mm | - | - | - |
| 1788011371 | 25° C | 50% | 1016.1 hPa | 0 mm | - | - | - |
| 1788011070 | 25° C | 48% | 1016.2 hPa | 0 mm | - | - | - |
| 1788010770 | 25° C | 48% | 1016.1 hPa | 0 mm | - | - | - |
| 1788010470 | 24.44° C | 50% | 1015.8 hPa | 0 mm | - | - | - |
| 1788010170 | 24.44° C | 50% | 1016 hPa | 0 mm | - | - | - |
| 1788009869 | 24.44° C | 50% | 1016 hPa | 0 mm | - | - | - |
| 1788009569 | 23.89° C | 48% | 1016 hPa | 0 mm | - | - | - |
| 1788009269 | 24.44° C | 48% | 1015.9 hPa | 0 mm | - | - | - |
| 1788008968 | 24.44° C | 48% | 1016 hPa | 0 mm | - | - | - |
| 1788008668 | 24.44° C | 48% | 1015.9 hPa | 0 mm | - | - | - |
| 1788008368 | 25° C | 49% | 1015.9 hPa | 0 mm | - | - | - |
| 1788008067 | 25° C | 51% | 1015.9 hPa | 0 mm | - | - | - |
| 1788007767 | 24.44° C | 53% | 1016.1 hPa | 0 mm | - | - | - |
| 1788007467 | 23.89° C | 53% | 1016 hPa | 0 mm | - | - | - |
| 1788007167 | 23.89° C | 53% | 1016 hPa | 0 mm | - | - | - |
| 1788006866 | 22.78° C | 56% | 1016.1 hPa | 0 mm | - | - | - |
| 1788006566 | 22.22° C | 56% | 1016.1 hPa | 0 mm | - | - | - |
| 1788006266 | 21.67° C | 56% | 1016.2 hPa | 0 mm | - | - | - |
| 1788005966 | 21.67° C | 56% | 1016.2 hPa | 0 mm | - | - | - |
| 1788005665 | 21.67° C | 56% | 1016.2 hPa | 0 mm | - | - | - |
* Rain latest hour (hover to see other rain measurements)
** Current wind speed in m/s (hover to see current wind gust speed)